Flag for U.S.A. Weather past 2 weeks in Omaha, Nebraska, U.S.A.

Now
79 °F

Clear.


Feels Like: 82 °F
Forecast: 74 / 92 °F
Wind: No wind

Location: Millard Airport

Current Time: Aug 22, 2014 at 10:39:47 PM

Latest Report: Aug 22, 2014 at 9:55 PM


Visibility: 10 mi

Pressure: 29.93 "Hg

Humidity: 87%

Dew point: 74 °F

Location of OmahaLocation

Historic Weather in Omaha — Graph

°F

Omaha temperature yesterday

Maximum temperature yesterday: 91 °F (at 6:35 PM)
Minimum temperature yesterday: 74 °F (at 8:15 AM)
Average temperature yesterday: 83 °F

Past Weeks' High & Low Weather Summary

 TemperatureHumidityPressure
High91 °F (Aug 20, 4:15 PM)97% (Aug 13, 5:55 AM)30.17 "Hg (Aug 13, 5:55 AM)
Low55 °F (Aug 12, 5:55 AM)38% (Aug 13, 4:55 PM)29.74 "Hg (Aug 20, 4:15 AM)
Average75 °F75%29.95 "Hg
* Reported Aug 7 9:15 PM — Aug 22 9:15 PM, Omaha, Weather by CustomWeather, © 2014

Note: Actual official high and low records may vary slightly from our data, if they occured in-between our weather recording intervals... More about our weather records

Advertising

Omaha weather history for previous 24 hours

 ConditionsComfort  
Time TempWeatherWind HumidityBarometerVisibility
9:15 PM
Aug 22
78 °FClear.5 mph90%29.91 "Hg10 mi
8:55 PM79 °FSunny.8 mph90%29.91 "Hg10 mi
8:35 PM78 °FSunny.5 mph89%29.91 "Hg7 mi
8:15 PM79 °FSunny.No wind87%29.91 "Hg10 mi
7:55 PM79 °FSunny.No wind87%29.91 "Hg10 mi
7:35 PM78 °FSunny.No wind87%29.92 "Hg10 mi
7:15 PM77 °FSunny.No wind85%29.92 "Hg10 mi
6:55 PM82 °FSunny.3 mph76%29.91 "Hg10 mi
6:15 PM82 °FThundershowers. Sunny.3 mph72%29.87 "Hg10 mi
5:55 PM81 °FScattered clouds.No wind69%29.90 "Hg10 mi
5:35 PM78 °FThundershowers. Cloudy.No wind75%29.92 "Hg10 mi
5:15 PM81 °FThundershowers. Cloudy.6 mph77%29.90 "Hg10 mi
4:55 PM80 °FThunderstorms. Cloudy.5 mph76%29.91 "Hg7 mi
4:35 PM83 °FThunderstorms. Mostly cloudy.6 mph70%29.90 "Hg10 mi
4:15 PM90 °FOvercast.8 mph63%29.90 "Hg10 mi
3:55 PM89 °FOvercast.5 mph65%29.89 "Hg10 mi
3:35 PM89 °FPartly sunny.No wind66%29.89 "Hg10 mi
3:15 PM90 °FBroken clouds.3 mph61%29.89 "Hg10 mi
2:55 PM90 °FScattered clouds.No wind61%29.89 "Hg10 mi
2:15 PM90 °FScattered clouds.3 mph59%29.90 "Hg10 mi
1:55 PM90 °FScattered clouds.No wind59%29.90 "Hg10 mi
1:35 PM89 °FScattered clouds.No wind61%29.91 "Hg10 mi
1:15 PM89 °FBroken clouds.No wind64%29.91 "Hg10 mi
12:55 PM87 °FScattered clouds.No wind66%29.92 "Hg10 mi
12:15 PM87 °FSunny.5 mph68%29.91 "Hg10 mi
11:55 AM87 °FSunny.5 mph69%29.91 "Hg10 mi
11:15 AM85 °FSunny.7 mph70%29.92 "Hg10 mi
10:55 AM85 °FSunny.7 mph73%29.92 "Hg10 mi
10:35 AM84 °FSunny.5 mph74%29.92 "Hg10 mi
10:15 AM83 °FSunny.No wind79%29.92 "Hg10 mi
9:55 AM82 °FSunny.5 mph80%29.92 "Hg10 mi
9:15 AM80 °FSunny.5 mph81%29.91 "Hg10 mi
8:55 AM79 °FSunny.5 mph82%29.91 "Hg10 mi
8:35 AM78 °FSunny.No wind83%29.90 "Hg10 mi
8:15 AM77 °FSunny.No wind85%29.90 "Hg10 mi
7:55 AM76 °FSunny.No wind91%29.90 "Hg10 mi
7:35 AM74 °FClear.No wind95%29.89 "Hg7 mi
7:15 AM73 °FClear.No wind95%29.89 "Hg7 mi
6:55 AM73 °FFog.No wind96%29.89 "Hg2 mi
6:35 AM73 °FFog.No wind96%29.89 "Hg2 mi
6:15 AM73 °FFog.No wind95%29.89 "Hg2 mi
5:55 AM74 °FFog.No wind95%29.88 "Hg5 mi
5:15 AM74 °FClear.No wind94%29.88 "Hg7 mi
4:55 AM74 °FClear.No wind93%29.88 "Hg10 mi
4:35 AM75 °FClear.No wind91%29.89 "Hg10 mi
4:15 AM75 °FClear.No wind94%29.89 "Hg7 mi
3:55 AM76 °FPassing clouds.No wind93%29.89 "Hg10 mi
3:15 AM78 °FClear.No wind91%29.88 "Hg10 mi
2:55 AM78 °FPassing clouds.No wind93%29.87 "Hg10 mi
2:15 AM78 °FClear.No wind91%29.86 "Hg10 mi
1:55 AM78 °FClear.No wind91%29.85 "Hg10 mi
1:35 AM78 °FClear.No wind90%29.86 "Hg10 mi
1:15 AM78 °FPassing clouds.No wind93%29.87 "Hg7 mi
12:55 AM78 °FThundershowers. Passing clouds.No wind92%29.86 "Hg10 mi
12:35 AM77 °FThundershowers. Fog.No wind94%29.85 "Hg5 mi
12:15 AM80 °FThunderstorms. Mostly cloudy.No wind85%29.87 "Hg2 mi
11:55 PM
Aug 21
83 °FThunderstorms. Mostly cloudy.9 mph75%29.88 "Hg10 mi
11:35 PM82 °FOvercast.6 mph83%29.87 "Hg10 mi
11:15 PM82 °FPassing clouds.No wind81%29.86 "Hg10 mi
10:55 PM83 °FPassing clouds.No wind77%29.85 "Hg10 mi
10:35 PM82 °FThundershowers. Mostly cloudy.No wind80%29.86 "Hg10 mi
10:15 PM82 °FPassing clouds.No wind80%29.85 "Hg10 mi
Weather by CustomWeather, © 2014

See weather overviewHow to use our weather pages